Location: Beang
(6.6177°N, 10.9863°W)
Time: 23:14:15
(UTC+00:00)

PSLV R/B - Pass Details

Date: 07 June 2020
Orbit: 569 x 598 km, 98.2° (Epoch: 10 July)

Event Time Altitude Azimuth Distance (km) Brightness Sun altitude
Rises 05:54:12 0° 167° (SSE) 2,761 7.3 -8.5°
Reaches altitude 10° 05:56:21 10° 167° (SSE) 1,863 6.4 -8.1°
Maximum altitude 06:00:23 87° 80° (E) 573 3.9 -7.1°
Drops below altitude 10° 06:04:25 10° 349° (N) 1,865 6.7 -6.2°
Sets 06:06:33 0° 349° (N) 2,763 7.6 -5.7°
